Location: Tierra del Sol
(32.6128°N, 116.3319°W)
Time: 16:50:10
(UTC-07:00)

Vanguard 2 - Visible Passes

Search period start: 23 June 2018 00:00
Search period end: 03 July 2018 00:00
Orbit: 553 x 2939 km, 32.9° (Epoch: 23 June)

Date Brightness Start Highest point End Pass type
(mag) Time Alt. Az. Time Alt. Az. Time Alt. Az.
23 Jun 10.3 01:30:14 14° ESE 01:30:14 14° ESE 01:31:07 10° E visible
23 Jun 8.0 03:31:36 37° SW 03:34:23 62° SSE 03:39:30 10° E visible
24 Jun 9.7 01:46:45 26° ESE 01:46:45 26° ESE 01:49:38 10° E visible
24 Jun 7.9 03:48:07 26° WSW 03:52:30 76° SSE 03:57:34 10° E visible
25 Jun 9.0 02:03:11 43° SE 02:03:11 43° SE 02:07:54 10° E visible
25 Jun 7.8 04:04:33 17° W 04:10:38 86° S 04:15:37 10° E visible
26 Jun 8.6 02:19:33 62° SSE 02:19:38 62° SSE 02:26:03 10° E visible
26 Jun 7.8 04:20:58 10° W 04:28:47 88° N 04:33:40 10° E visible
27 Jun 10.4 00:34:26 16° E 00:34:26 16° E 00:35:50 10° E visible
27 Jun 8.4 02:35:48 56° SW 02:37:48 73° SSE 02:44:09 10° E visible
27 Jun 7.8 04:39:22 10° W 04:46:56 87° N 04:51:43 10° E visible
27 Jun 11.3 22:24:04 10° SSW 22:25:41 13° S 22:25:41 13° S visible
28 Jun 9.8 00:50:34 30° ESE 00:50:34 30° ESE 00:54:11 10° E visible
28 Jun 8.4 02:51:54 38° WSW 02:55:59 83° S 03:02:12 10° E visible
28 Jun 7.7 04:57:45 10° W 05:05:05 87° S 05:09:46 10° E visible
28 Jun 11.1 22:40:22 10° SSW 23:05:09 - E 22:44:56 19° SSW visible
29 Jun 9.2 01:06:28 51° ESE 01:06:28 51° ESE 01:12:22 10° E visible
29 Jun 8.4 03:07:47 24° W 03:14:10 90° SSW 03:20:15 10° E visible
29 Jun 10.9 20:52:05 10° S 21:00:13 15° SE 21:03:07 14° SE visible
29 Jun 10.7 22:57:17 10° SSW 23:20:43 13° E 23:21:33 10° E visible
30 Jun 9.0 01:22:00 71° S 01:22:28 71° SSE 01:30:30 10° E visible
30 Jun 8.3 03:23:16 13° W 03:32:23 88° N 03:38:19 10° E visible
30 Jun 10.8 21:06:52 10° S 21:18:28 22° SE 21:24:02 18° ESE visible
30 Jun 10.1 23:14:38 10° SW 23:35:25 31° ESE 23:40:00 10° E visible
01 Jul 8.9 01:27:06 10° WSW 01:40:42 81° SSE 01:48:36 10° E visible
01 Jul 8.3 03:40:42 10° W 03:50:35 89° N 03:56:22 10° E visible
01 Jul 10.5 21:22:52 10° SSW 21:36:40 30° SE 21:47:39 10° E visible
01 Jul 9.5 23:32:20 10° SW 23:48:07 59° SSE 23:58:17 10° E visible
02 Jul 8.9 01:45:34 10° W 01:58:57 88° S 02:06:40 10° E visible
02 Jul 8.2 03:59:09 10° W 04:08:46 84° S 04:14:25 10° ESE visible
02 Jul 10.3 21:39:32 10° SSW 21:54:50 38° SSE 22:06:36 10° E visible
